123  
ASUS41 KCLE 240912  
RWRCLE  
OHIO REGIONAL WEATHER ROUNDUP  
NATIONAL WEATHER SERVICE WILMINGTON, OH  
400 AM EST WED JAN 24 2018  
 
NOTE: "FAIR" INDICATES FEW OR NO CLOUDS BELOW 12,000 FEET WITH NO  
SIGNIFICANT WEATHER AND/OR S TO VISIBILITY
.  
 
OHZ001>008-015>018-024>027-034-035-043-044-241000-  
NORTHWEST OHIO  
 
CITY SKY/WX TMP DP RH WIND PRES REMARKS
 
DEFIANCE CLOUDY 29 20 69 NW8 30.13R WCI 21  
FINDLAY CLOUDY 31 22 69 W6 30.10S WCI 25  
TOLEDO EXPRESS CLOUDY 30 21 69 NW10 30.11R WCI 21  
TOLEDO EXEC CLOUDY 30 21 69 NW9 30.12S WCI 22  
LIMA CLOUDY 30 26 85 NW13 30.12R WCI 20  

 
 
OHZ009>014-019>023-028>033-038-089-241000-  
NORTHEAST OHIO  
 
CITY SKY/WX TMP DP RH WIND PRES REMARKS
 
CLE-HOPKINS CLOUDY 29 22 75 NW16 30.10R WCI 17  
CLE-LAKEFRONT CLOUDY 28 20 71 NW21G26 30.08R WCI 15  
CUY CO. ARPT NOT AVBL  
LORAIN-ELYRIA CLOUDY 28 18 66 N10 30.09R WCI 19  
ASHTABULA CLOUDY 25 22 88 NW8G20 30.05R WCI 16  
AKRON-CANTON FLURRIES 30 24 78 NW12 30.04R WCI 20  
WOOSTER CLOUDY 28 23 81 NW14 30.07R WCI 17  
MANSFIELD CLOUDY 28 23 81 NW10 30.07R WCI 19  
YOUNGSTOWN FRZ DRZL 28 25 88 NW9 30.01R WCI 19  

 
 
OHZ042-051>053-060>062-070>072-077>081-241000-  
SOUTHWEST OHIO  
 
CITY SKY/WX TMP DP RH WIND PRES REMARKS
 
CINC-COVINGTON CLOUDY 31 27 85 NW9 30.18R WCI 23  
CINC-LUNKEN CLOUDY 33 26 75 W6 30.22R WCI 28  
HAMILTON CLOUDY 32 26 78 W8 30.21R WCI 25  
DAYTON CLOUDY 30 27 88 W14 30.16R WCI 19  
WRIGHT-PAT AFB CLOUDY 31 26 79 W10 30.16R WCI 23  
DAYTON GENERAL CLOUDY 31 26 82 W12 30.16R WCI 22  
WILMINGTON CLOUDY 30 27 88 W13 30.15R WCI 20  

 
 
OHZ036-037-039>041-045>050-054>059-063>069-073>076-082>088-241000-  
CENTRAL AND SOUTHEAST OHIO  
 
CITY SKY/WX TMP DP RH WIND PRES REMARKS
 
COLUMBUS FLURRIES 32 28 85 W10 30.12R WCI 24  
OSU AIRPORT CLOUDY 31 26 82 NW10 30.12R WCI 22  
BOLTON FIELD CLOUDY 31 28 87 W7 30.13R WCI 24  
RICKENBACK AFB CLOUDY 31 29 92 W13G18 30.13S WCI 21  
NEWARK CLOUDY 32 26 78 W13G20 30.10R WCI 22  
MARION CLOUDY 30 23 75 NW15 30.11R WCI 19  
LANCASTER CLOUDY 31 26 82 W14G20 30.13R WCI 21  
ZANESVILLE CLOUDY 32 24 72 NW12 30.10R WCI 23  
NEW PHILLY CLOUDY 31 26 82 W6 30.07R WCI 25  

 
 
 
CLICK HERE TO GO TO PREVIOUS BULLETINS.

The Nexlab OH Page
The Nexlab PA Page Main Text Page